Location: Praha
(50.0830°N, 14.4670°E)
Time: 18:07:46
(UTC+02:00)

ISS - Pass Details

Date: 06 September 2024
Orbit: 414 x 424 km, 51.6° (Epoch: 16 September)

Event Time Altitude Azimuth Distance (km) Brightness Sun altitude
Exits shadow 05:24:52 15° 259° (W) 1,261 -2.0 -10.1°
Maximum altitude 05:26:42 22° 217° (SW) 984 -2.4 -9.8°
Drops below altitude 10° 05:29:24 10° 165° (SSE) 1,514 -1.0 -9.4°
Sets 05:31:47 0° 149° (SSE) 2,377 0.2 -9.0°
